RÉSULTATS    Bouge ta Boîte - Édition du 06/06/2019

123 participants - 113 Hommes - 10 Femmes
0 licenciés (0%) - 123 non-licenciés (100%)

Temps moyen : 01:14:01




Pos. Temps Equipe Club Dossard Catégorie km/h
101 01:28:29 THALÈS DREAM TEAM 4 THALES DIS 41 REF (2 / 10) 10.7
102 01:28:42 CITEOS/CEGELEC CITEOS/CEGELEC 9 REM (66 / 86) 11.5
103 01:28:47 AUDELYS GIRLS AUDELYS 36 REF (3 / 10) 10.7
104 01:29:00 ARCOLE PINK ARCOLE 30 REF (1 / 10) 11.0
105 01:29:14 GAZ'LLE AG2R LA MONDIALE 109 REF (4 / 10) 10.7
106 01:29:33 THALÈS DREAM TEAM 3 THALES DIS 40 REM (76 / 86) 10.6
107 01:30:21 SMA1 SMABTP 105 REF (5 / 10) 10.5
108 01:31:13 NO'BELLES DE LA PAIE CERFRANCE 61 REF (6 / 10) 10.4
109 01:31:14 LA TEAM SQH SQUARE HABITAT 102 REH (25 / 25) 11.1
110 01:31:20 AVANCI GIRLS TEAM AVANCI 1 REF (7 / 10) 10.4
111 01:31:32 CREPI TOURAINE CREPI TOURAINE 121 REM (78 / 86) 10.4
112 01:34:10 FLUNCH FLUNCH SAINT PIERRE DES CORPS 24 REM (80 / 86) 10.1
113 01:34:16 AVOCAT'RTING FIDAL 70 REM (77 / 86) 10.4
114 01:34:17 ELLISPHERE 1 ELLISPHERE 57 REF (9 / 10) 9.8
115 01:34:26 SODIATEC 2 HLR DEVELOPPEMENT 94 REM (81 / 86) 10.1
116 01:34:38 RBA FILLES RBA 96 REF (8 / 10) 10.4
117 01:35:08 LESCUYER 3 LESCUYER ET VILLENEUVE 23 REM (79 / 86) 10.3
118 01:36:51 LES P'TITS BOUCHONS CLEOPATRE 18 REM (86 / 86) 9.6
119 01:37:12 TGS AVOCATS TGS AVOCATS 42 REM (82 / 86) 9.8
120 01:37:39 LES RON'STARS CLINIQUE RONSARD 29 REM (83 / 86) 9.8
121 01:38:32 ARTUS TOURS GROUPE ARTUS 66 REM (84 / 86) 9.7
122 01:39:11 ARTUS RH FORMATION GROUPE ARTUS 65 REM (85 / 86) 9.6
123 01:39:34 LES LICORNES DE SQUARE SQUARE HABITAT 103 REF (10 / 10) 9.6